TimePST,TemperatureF,Dew PointF,Humidity,Sea Level PressureIn,VisibilityMPH,Wind Direction,Wind SpeedMPH,Gust SpeedMPH,PrecipitationIn,Events,Conditions,WindDirDegrees,DateUTC
12:56 AM,57.9,50.0,75,30.08,10.0,West,10.4,-,N/A,,Overcast,260,2012-12-03 08:56:00
1:56 AM,57.9,50.0,75,30.09,10.0,WSW,11.5,-,N/A,,Overcast,250,2012-12-03 09:56:00
2:56 AM,55.9,50.0,80,30.08,10.0,SW,8.1,-,N/A,,Clear,230,2012-12-03 10:56:00
3:56 AM,55.9,51.1,84,30.08,10.0,WSW,12.7,-,N/A,,Partly Cloudy,250,2012-12-03 11:56:00
4:56 AM,52.0,48.0,86,30.11,10.0,WSW,6.9,-,N/A,,Clear,250,2012-12-03 12:56:00
5:56 AM,53.1,48.9,86,30.12,10.0,West,8.1,-,N/A,,Partly Cloudy,260,2012-12-03 13:56:00
6:56 AM,54.0,48.9,83,30.14,10.0,West,11.5,-,N/A,,Partly Cloudy,260,2012-12-03 14:56:00
7:56 AM,57.0,50.0,77,30.14,10.0,West,6.9,-,N/A,,Clear,270,2012-12-03 15:56:00
8:56 AM,61.0,48.9,64,30.16,10.0,West,13.8,-,N/A,,Clear,260,2012-12-03 16:56:00
9:56 AM,63.0,48.0,58,30.16,10.0,WSW,18.4,-,N/A,,Clear,250,2012-12-03 17:56:00
10:56 AM,64.0,46.0,52,30.14,10.0,WSW,19.6,-,N/A,,Clear,240,2012-12-03 18:56:00
11:56 AM,66.0,45.0,47,30.13,10.0,WSW,17.3,23.0,N/A,,Clear,240,2012-12-03 19:56:00
12:56 PM,66.9,45.0,45,30.10,10.0,WSW,19.6,24.2,N/A,,Clear,250,2012-12-03 20:56:00
1:56 PM,66.9,44.1,44,30.08,10.0,SW,17.3,25.3,N/A,,Clear,230,2012-12-03 21:56:00
2:56 PM,64.9,46.0,50,30.09,10.0,SW,19.6,26.5,N/A,,Clear,230,2012-12-03 22:56:00
3:56 PM,62.1,46.9,58,30.10,10.0,SW,16.1,-,N/A,,Clear,220,2012-12-03 23:56:00
4:56 PM,59.0,46.0,62,30.13,10.0,SW,10.4,-,N/A,,Clear,220,2012-12-04 00:56:00
5:56 PM,57.0,44.1,62,30.13,10.0,WSW,12.7,-,N/A,,Clear,250,2012-12-04 01:56:00
6:56 PM,55.9,39.0,53,30.17,10.0,NW,4.6,-,N/A,,Clear,320,2012-12-04 02:56:00
7:56 PM,48.0,35.1,61,30.19,10.0,NNW,6.9,-,N/A,,Clear,330,2012-12-04 03:56:00
8:56 PM,48.9,32.0,52,30.20,10.0,SSW,3.5,-,N/A,,Clear,210,2012-12-04 04:56:00
9:56 PM,42.1,30.9,65,30.21,10.0,WNW,4.6,-,N/A,,Clear,290,2012-12-04 05:56:00
10:56 PM,42.1,26.1,53,30.21,10.0,West,4.6,-,N/A,,Unknown,280,2012-12-04 06:56:00
11:56 PM,44.1,25.0,47,30.21,10.0,Calm,Calm,-,N/A,,Clear,0,2012-12-04 07:56:00